Oceana NAS, VA

11:39 PM EDT on May 23, 2017 (GMT -0400)
Oceana Naval Air Station

Weather History for KNTU - December, 2013

Change the Weather History Date:

Friday, December 13, 2013

  Actual Average Record
Temperature  
Mean Temperature 36 °F -  
Max Temperature 48 °F 52 °F 75 °F (2015)
Min Temperature 25 °F 35 °F 25 °F (2010)
Degree Days  
Heating Degree Days 28    
Moisture  
Dew Point 20 °F    
Average Humidity 56    
Maximum Humidity 81    
Minimum Humidity 30    
Precipitation  
Precipitation 0.00 in - - ()
Sea Level Pressure  
Sea Level Pressure 30.32 in    
Wind  
Wind Speed 7 mph (WSW)    
Max Wind Speed 15 mph    
Max Gust Speed -    
Visibility 10 miles    
Events      
Averages and records for this station are not official NWS values.
T = Trace of Precipitation, MM = Missing Value Source: NWS Daily Summary

Daily Weather History Graph

Daily Weather History Graph

Search for Another Location

Airport or City:

Trip Planner

Search our weather history database for the weather conditions in past years. The results will help you decide how hot, cold, wet, or windy it might be!

Date:

Astronomy

Dec. 13, 2013 Rise Set
Actual Time 7:08 AM EST 4:48 PM EST
Civil Twilight 6:39 AM EST 5:17 PM EST
Nautical Twilight 6:07 AM EST 5:49 PM EST
Astronomical Twilight 5:35 AM EST 6:21 PM EST
Moon 2:26 PM EST (12/13) 3:32 AM EST (12/13)
Length of Visible Light 10h 37m
Length of Day
9h 40m
Waxing Gibbous, 88% of the Moon is Illuminated
Dec 13
Waxing Gibbous
Dec 17
Full
Dec 25
Last Quarter
Jan 1
New
Jan 7
First Quarter

Hourly Weather History & Observations

Time (EST) Temp. Windchill Dew Point Humidity Pressure Visibility Wind Dir Wind Speed Gust Speed Precip Events Conditions
12:56 AM 25.0 °F 19.3 °F 19.9 °F 81% 30.31 in 10.0 mi SW 4.6 mph - N/A   Clear
1:56 AM 25.0 °F 18.1 °F 19.9 °F 81% 30.32 in 10.0 mi SW 5.8 mph - N/A   Clear
2:56 AM 26.1 °F 18.4 °F 19.9 °F 78% 30.33 in 10.0 mi WSW 6.9 mph - N/A   Clear
3:56 AM 27.0 °F 20.5 °F 21.0 °F 78% 30.33 in 10.0 mi WSW 5.8 mph - N/A   Clear
4:56 AM 27.0 °F 20.5 °F 18.0 °F 69% 30.32 in 10.0 mi WSW 5.8 mph - N/A   Clear
5:56 AM 26.1 °F 16.8 °F 17.1 °F 69% 30.32 in 10.0 mi WSW 9.2 mph - N/A   Clear
6:56 AM 27.0 °F 18.0 °F 17.1 °F 66% 30.34 in 10.0 mi WSW 9.2 mph - N/A   Clear
7:56 AM 28.9 °F 20.4 °F 19.0 °F 67% 30.35 in 10.0 mi WSW 9.2 mph - N/A   Partly Cloudy
8:56 AM 34.0 °F 25.0 °F 19.9 °F 56% 30.36 in 10.0 mi West 12.7 mph - N/A   Partly Cloudy
9:56 AM 39.9 °F 32.5 °F 17.1 °F 40% 30.36 in 10.0 mi West 12.7 mph - N/A   Clear
10:56 AM 43.0 °F 35.7 °F 16.0 °F 34% 30.35 in 10.0 mi West 15.0 mph - N/A   Clear
11:56 AM 46.0 °F 40.2 °F 17.1 °F 31% 30.31 in 10.0 mi WSW 12.7 mph - N/A   Partly Cloudy
12:56 PM 46.9 °F - 18.0 °F 32% 30.29 in 10.0 mi WSW 12.7 mph - N/A   Scattered Clouds
1:56 PM 48.0 °F - 18.0 °F 30% 30.27 in 10.0 mi WSW 11.5 mph - N/A   Scattered Clouds
2:56 PM 48.0 °F - 19.0 °F 32% 30.27 in 10.0 mi WSW 11.5 mph - N/A   Scattered Clouds
3:56 PM 46.9 °F - 21.0 °F 36% 30.28 in 10.0 mi WSW 9.2 mph - N/A   Scattered Clouds
4:56 PM 43.0 °F 38.2 °F 21.0 °F 42% 30.29 in 10.0 mi WSW 8.1 mph - N/A   Scattered Clouds
5:56 PM 43.0 °F 38.8 °F 21.9 °F 43% 30.30 in 10.0 mi SW 6.9 mph - N/A   Scattered Clouds
6:56 PM 37.0 °F - 23.0 °F 57% 30.32 in 10.0 mi Calm Calm - N/A   Clear
7:56 PM 35.1 °F 32.2 °F 24.1 °F 64% 30.32 in 10.0 mi South 3.5 mph - N/A   Partly Cloudy
8:56 PM 32.0 °F - 24.1 °F 73% 30.32 in 10.0 mi Calm Calm - N/A   Scattered Clouds
9:56 PM 33.1 °F 30.0 °F 26.1 °F 75% 30.33 in 10.0 mi South 3.5 mph - N/A   Scattered Clouds
10:56 PM 37.0 °F - 26.1 °F 65% 30.35 in 10.0 mi Calm Calm - N/A   Mostly Cloudy
11:56 PM 39.0 °F 35.7 °F 23.0 °F 53% 30.33 in 10.0 mi SSW 4.6 mph - N/A   Scattered Clouds